Home   Weather   Humenné   Past weeks
Flag for Slovakia

Past Weather in Humenné, Slovakia — Yesterday and Last 2 Weeks

Now
36 °F

Scattered clouds.


Feels Like: 34 °F
Forecast: 31 / 23 °F
Wind: 3 mph from South

Location: Kamenica Nad Cirochou

Current Time: Jan 24, 2020 at 4:06:28 pm

Latest Report: Jan 24, 2020 at 3:00 pm


Visibility: 16 mi

Pressure: 30.32 "Hg

Humidity: 69%

Dew Point: 27 °F

Location of HumennéLocation

Past Weather in Humenné — Graph

°F

Humenné Temperature Yesterday

Maximum temperature yesterday: 40 °F (at 2:00 pm)
Minimum temperature yesterday: 28 °F (at 10:00 pm)
Average temperature yesterday: 33 °F

High & Low Weather Summary for the Past Weeks

 TemperatureHumidityPressure
High40 °F (Jan 23, 2:00 pm)99% (Jan 12, 9:00 am)30.91 "Hg (Jan 12, 9:00 am)
Low21 °F (Jan 17, 8:00 am)56% (Jan 23, 1:00 pm)30.21 "Hg (Jan 10, 1:00 pm)
Average31 °F89%30.47 "Hg
* Reported Jan 9 3:00 pm — Jan 24 3:00 pm, Humenné. Weather by CustomWeather, © 2020

Note: Actual official high and low records may vary slightly from our data, if they occured in-between our weather recording intervals... More about our weather records

Humenné Weather History for the Previous 24 Hours

Scroll right to see more
 ConditionsComfort  
Time TempWeatherWind HumidityBarometerVisibility
3:00 pm
Fri, Jan 24
36 °FScattered clouds.3 mph69%30.32 "Hg16 mi
2:00 pm37 °FScattered clouds.3 mph67%30.35 "Hg16 mi
1:00 pm36 °FPassing clouds.3 mph70%30.38 "Hg15 mi
12:00 pm35 °FPassing clouds.3 mph74%30.40 "Hg13 mi
11:00 am34 °FScattered clouds.6 mph77%30.42 "Hg12 mi
10:00 am34 °FScattered clouds.3 mph80%30.44 "Hg9 mi
9:00 am31 °FScattered clouds.3 mph87%30.45 "Hg9 mi
8:00 am31 °FFog.3 mph86%30.45 "Hg4 mi
7:00 am31 °FPassing clouds.3 mph86%30.45 "Hg7 mi
6:00 am31 °FChilly.3 mph85%30.46 "HgN/A
5:00 am31 °FChilly.N/A85%30.46 "HgN/A
4:00 am32 °FChilly.N/A84%30.47 "HgN/A
3:00 am32 °FChilly.2 mph84%30.48 "HgN/A
2:00 am32 °FChilly.N/A84%30.49 "HgN/A
1:00 am32 °FChilly.N/A84%30.50 "HgN/A
12:00 am30 °FChilly.N/A85%30.52 "HgN/A
11:00 pm
Thu, Jan 23
29 °FChilly.N/A88%30.52 "HgN/A
10:00 pm28 °FChilly.N/A83%30.52 "HgN/A
9:00 pm30 °FClear.N/A81%30.52 "Hg7 mi
8:00 pm30 °FClear.N/A83%30.53 "Hg9 mi
7:00 pm31 °FClear.N/A82%30.52 "Hg9 mi
6:00 pm32 °FPassing clouds.N/A79%30.53 "Hg12 mi
5:00 pm33 °FPassing clouds.N/A77%30.53 "Hg12 mi
4:00 pm36 °FScattered clouds.2 mph69%30.52 "Hg19 mi
Weather by CustomWeather, © 2020

See weather overview

Advertising